Location: Lourdes
(43.1000°N, 0.0500°W)
Time: 00:53:54
(UTC+00:00)

Cosmos 773 Rocket - Pass Details

Date: 12 April 2021
Orbit: 745 x 777 km, 74.1° (Epoch: 10 May)

Event Time Altitude Azimuth Distance (km) Brightness Sun altitude
Rises 03:52:22 0° 323° (NW) 3,253 7.2 -16.3°
Reaches altitude 10° 03:55:31 10° 304° (WNW) 2,326 6.2 -15.8°
Enters shadow 03:57:30 16° 282° (WNW) 1,965 5.7 -15.5°
